GFSSGP_700_rhum_138.txt.gz
RH
14 12 11 11 13 10 8 10 11 18 20 14 14 19 21 26 38 40 33 33 33 35 36 38 34 20 13 9 9 8 8 8 9 10 15 22 26 29 26 20 18 25 37 52 53 54 59 74 85
22 20 16 13 13 10 8 11 14 16 10 11 12 21 26 40 29 32 29 31 32 38 42 38 18 12 10 10 10 9 7 7 7 7 10 14 17 19 19 19 22 31 39 52 57 59 67 75 84
25 25 25 20 14 12 10 13 19 12 11 11 15 17 20 26 25 28 25 30 28 34 42 18 12 14 15 11 11 10 8 6 6 6 7 10 13 18 26 30 28 38 47 54 62 66 72 73 78
29 30 28 24 16 15 12 16 9 21 23 13 14 29 22 19 22 26 25 34 28 42 26 13 20 19 14 12 12 11 9 8 6 6 7 8 15 21 29 29 35 46 56 62 68 72 75 73 72
32 33 28 24 21 22 19 15 16 25 34 20 19 28 23 21 23 23 26 40 38 42 20 18 21 15 14 13 13 13 12 10 8 7 8 12 15 17 26 33 38 49 57 65 77 76 73 72 78
40 36 29 23 23 30 30 29 29 37 40 39 29 23 30 22 23 22 24 45 42 43 19 22 19 16 15 15 14 14 14 14 11 9 10 12 11 13 20 30 36 46 59 70 80 78 76 84 92
39 39 30 31 32 32 40 33 43 32 38 37 32 30 32 35 21 23 24 29 49 48 19 23 19 19 20 18 15 15 16 16 16 12 10 10 11 12 14 21 29 41 58 68 78 86 81 88 80
29 37 34 32 28 31 46 33 35 35 31 29 30 34 30 25 22 23 26 30 50 51 27 21 19 20 22 19 16 15 16 18 17 15 11 11 12 12 12 13 18 30 51 60 61 70 87 84 78
16 32 26 32 36 34 43 27 28 22 22 21 23 25 26 27 26 22 26 33 54 57 49 21 20 20 22 19 17 17 16 16 17 17 12 11 12 13 12 11 14 23 44 55 63 91 90 94 83
17 26 24 29 28 21 12 10 9 8 12 12 10 12 14 19 25 27 24 26 46 54 58 29 19 20 21 19 18 18 17 17 18 18 16 13 13 14 13 12 16 24 37 49 67 93 89 89 79
15 20 23 20 8 7 6 6 5 4 6 6 5 6 7 8 10 22 29 26 27 48 55 42 25 19 20 20 19 18 19 19 20 20 19 16 16 17 15 12 16 29 35 42 66 92 88 89 77
7 7 6 6 4 3 2 2 2 2 2 2 2 2 2 2 3 6 17 29 30 31 52 55 35 23 20 22 22 20 19 19 20 22 22 19 20 21 21 14 12 28 36 40 61 90 93 90 84
2 2 2 2 2 2 2 2 2 3 3 3 4 4 3 3 2 2 2 13 30 32 37 56 50 35 22 22 24 24 21 20 22 23 24 23 22 24 25 21 14 29 40 39 60 81 95 96 91
2 2 2 2 2 3 4 4 4 4 4 4 3 3 3 3 3 3 3 2 5 26 38 50 58 48 30 24 24 25 27 25 25 24 24 25 25 24 27 29 24 16 43 41 55 78 82 85 86
3 4 3 2 3 4 4 7 8 6 3 3 2 2 2 2 2 2 3 3 3 2 17 41 57 64 46 26 27 28 28 29 26 26 28 26 27 26 28 31 35 30 18 45 46 63 82 80 81
3 4 11 9 4 5 4 8 6 3 3 2 3 2 2 2 2 1 1 2 2 3 2 12 38 54 64 42 28 28 31 30 30 28 29 30 28 27 28 32 35 39 37 21 45 50 63 78 85
11 9 15 13 10 4 7 8 11 6 3 3 5 8 9 8 7 6 4 3 2 2 2 2 9 35 50 61 44 30 30 30 32 35 35 31 31 29 27 29 34 36 39 40 27 29 54 59 74
14 16 16 14 11 3 3 13 15 4 5 20 28 17 22 35 53 55 34 7 5 3 2 2 2 6 34 49 62 48 36 32 31 44 58 46 32 34 27 28 29 34 37 38 42 33 26 53 66
8 8 14 12 8 4 3 9 18 12 24 28 35 40 44 60 67 76 81 44 20 8 4 2 4 3 15 30 49 59 44 34 44 58 64 67 42 32 32 27 28 29 33 36 39 45 38 29 36
10 15 13 10 10 8 7 7 20 25 29 35 38 51 67 74 76 88 55 28 35 27 17 11 5 6 5 19 35 56 58 52 54 62 62 62 40 28 28 27 28 28 29 32 35 34 41 44 38
19 13 20 17 17 17 23 13 21 25 27 38 62 74 77 90 89 57 50 55 59 54 49 31 23 22 9 8 29 40 49 62 60 61 56 46 46 31 26 28 28 29 31 30 35 35 36 38 47
18 8 4 13 30 18 30 13 18 23 34 56 68 74 85 61 58 63 59 61 58 64 60 39 35 23 14 9 27 33 39 54 60 56 49 42 44 31 35 35 35 36 35 33 32 35 34 37 38
25 5 5 24 37 38 33 29 14 24 49 61 66 78 78 71 72 66 71 72 66 60 51 56 50 34 25 14 11 40 30 50 63 53 46 40 45 39 39 38 39 38 38 37 35 35 32 33 34
7 8 40 44 46 29 26 28 17 40 63 68 58 84 60 67 70 60 87 83 74 70 58 47 52 36 30 15 12 22 27 33 50 49 36 39 49 44 42 42 39 40 40 39 36 36 35 34 35
30 34 15 17 21 16 29 32 27 57 72 82 55 62 73 77 70 70 83 81 95 99 96 57 37 34 32 11 16 20 24 34 37 34 37 47 48 45 41 43 40 40 39 40 39 39 37 36 35
49 47 32 38 18 19 28 34 27 55 75 68 63 80 88 81 75 86 92 95 100 99 87 54 23 27 24 11 17 26 30 40 47 52 45 43 50 52 39 39 42 47 44 44 40 38 40 39 35
59 52 59 69 54 48 30 29 27 64 78 72 75 88 89 82 84 91 90 97 100 88 98 51 21 15 12 15 18 27 29 33 40 38 33 33 38 44 37 40 39 51 54 48 46 42 44 43 40
65 58 70 62 57 40 22 26 38 73 88 62 76 79 84 88 88 94 90 96 100 56 38 32 13 15 16 16 20 25 26 30 30 33 32 31 33 32 34 32 27 32 52 54 53 48 48 43 39
66 65 66 71 62 46 39 29 73 93 70 58 80 74 82 80 90 96 92 95 98 88 71 33 23 20 25 29 30 39 41 33 27 28 34 33 32 33 33 32 31 33 48 70 64 58 55 46 41
59 60 67 63 61 58 57 50 72 88 54 67 76 81 80 79 86 97 95 97 95 100 99 75 30 34 37 32 31 28 36 47 48 30 30 33 33 32 35 34 35 40 55 59 72 75 72 64 52

GFSSGP_700_rhum_141.txt.gz
RH
18 15 11 11 21 12 8 8 9 13 15 19 20 22 23 28 37 40 49 28 35 26 31 30 35 23 14 10 9 9 9 9 9 14 19 21 22 23 24 22 23 25 35 50 54 55 59 67 78
22 23 20 23 15 10 8 10 10 16 20 19 20 23 24 34 37 39 34 27 28 29 34 37 32 13 10 11 10 10 8 7 6 8 11 15 18 19 19 23 25 28 39 49 53 59 64 73 81
22 24 28 21 16 11 10 11 15 18 17 24 22 22 28 32 29 26 26 25 31 35 39 41 16 12 16 14 11 10 9 8 7 6 8 11 14 18 27 31 29 33 43 50 58 64 67 75 78
26 28 27 22 15 13 12 15 17 18 23 28 26 23 29 27 24 20 23 24 30 39 44 27 13 19 17 13 12 12 10 9 8 6 6 13 16 24 30 32 31 36 45 50 62 68 71 78 76
27 38 27 22 18 16 20 20 24 23 28 33 31 27 31 35 28 17 22 26 31 44 45 16 18 20 15 13 13 13 12 10 9 8 7 10 18 23 28 33 37 41 46 52 62 71 72 75 72
37 33 26 19 17 21 26 32 32 31 33 32 34 33 30 36 33 16 17 24 38 45 39 15 20 20 15 14 14 14 13 13 12 10 9 9 12 19 26 33 40 42 46 55 64 72 73 72 74
35 30 26 21 21 23 28 39 36 38 31 29 32 30 29 36 34 17 19 17 25 46 44 17 19 18 16 16 16 14 14 15 16 13 10 9 10 13 18 28 37 44 46 56 66 77 77 77 91
39 30 26 21 21 21 38 36 31 30 26 28 28 25 34 32 26 26 21 21 23 41 51 24 18 18 16 19 18 15 15 16 16 16 12 10 10 12 12 17 27 40 45 53 60 58 69 82 86
35 26 20 18 22 25 34 30 21 21 18 21 18 26 19 18 21 25 27 29 23 32 57 53 20 18 17 19 18 16 15 15 16 16 15 11 12 12 12 12 17 27 36 49 52 53 65 83 90
26 21 18 29 32 30 26 17 14 11 10 10 12 16 6 7 9 16 23 28 24 28 53 61 46 20 17 17 19 18 17 16 16 17 16 14 13 14 14 12 13 20 28 40 46 55 81 90 86
19 19 22 24 21 10 12 11 10 8 8 8 9 2 2 2 3 6 11 22 29 26 31 56 59 41 21 17 20 20 18 18 18 18 18 16 15 16 17 14 12 21 30 37 45 60 80 80 87
17 18 24 17 12 2 5 5 4 8 8 10 4 3 3 9 5 3 2 5 16 28 27 33 52 58 33 21 18 22 22 20 19 20 20 19 18 20 21 18 13 13 28 36 42 58 85 84 87
15 13 14 12 2 3 2 3 3 4 9 8 4 4 5 5 7 4 3 3 2 8 24 32 40 59 52 31 20 20 22 22 22 21 21 22 20 21 24 22 18 13 24 37 40 52 80 87 90
14 8 12 13 15 9 4 4 5 8 7 4 4 4 6 10 19 12 6 3 3 3 3 18 32 43 58 48 28 20 22 24 26 25 22 22 24 22 26 26 24 18 16 40 39 58 71 86 92
5 6 11 15 14 15 6 7 10 12 8 3 11 16 15 22 25 27 29 34 23 4 3 2 8 27 42 58 47 27 21 24 26 28 27 25 24 24 25 30 29 29 20 22 41 51 69 77 90
8 13 9 12 17 15 8 9 10 11 13 11 14 18 23 25 26 26 44 47 33 20 3 2 3 4 18 40 55 51 27 22 26 28 29 29 28 26 26 28 32 35 35 22 26 45 58 72 80
14 9 11 12 14 15 14 12 11 12 12 14 18 24 27 31 33 45 52 24 30 6 3 1 2 2 3 9 36 54 55 28 23 28 29 31 33 32 27 26 30 34 37 38 28 24 46 57 74
13 13 12 12 12 12 12 12 11 12 14 18 24 30 35 40 54 64 69 78 87 20 8 5 3 2 2 2 8 34 55 56 27 26 28 30 35 34 32 27 26 30 34 35 38 35 22 43 61
16 11 9 10 12 15 12 13 13 16 18 24 30 42 56 62 75 93 81 59 52 44 36 14 10 4 3 4 3 11 34 64 55 27 27 27 32 37 34 32 25 26 28 34 35 38 38 27 31
15 13 11 13 14 14 13 14 15 20 23 29 46 54 58 68 92 84 47 47 42 33 28 30 25 20 13 45 19 5 14 46 72 47 27 27 31 45 42 36 27 24 28 31 33 32 33 37 37
13 16 16 15 14 14 18 13 16 20 23 39 50 56 70 90 72 48 50 49 43 34 48 42 37 33 35 15 84 32 7 23 81 74 56 30 31 56 63 51 33 24 29 28 30 34 32 32 33
12 18 11 16 17 11 16 11 10 16 25 41 53 77 76 50 46 58 56 49 43 55 58 59 52 46 47 44 41 56 27 12 57 94 72 41 32 54 68 69 44 25 28 28 29 33 33 32 31
16 16 9 22 24 22 16 20 11 15 34 50 79 50 41 44 55 57 64 57 63 83 73 68 62 39 35 53 48 79 36 16 11 74 95 74 44 59 60 67 51 26 26 28 30 35 34 33 31
12 8 24 28 29 24 17 22 10 26 48 64 55 31 48 55 56 62 72 66 61 90 93 87 49 39 39 41 52 80 30 27 14 25 71 98 67 60 57 60 48 28 31 34 35 38 38 35 36
18 26 18 26 27 18 22 20 16 34 56 72 62 36 50 64 53 56 67 69 62 83 100 67 48 37 44 53 66 73 39 39 86 16 52 90 94 62 51 48 47 32 35 37 38 40 43 38 34
29 28 21 31 16 14 15 16 26 42 56 72 71 39 52 61 52 58 67 74 78 88 100 97 96 81 40 66 78 69 38 25 98 53 48 62 91 59 42 47 55 42 38 37 42 42 45 42 39
42 34 43 48 25 35 19 22 21 46 61 73 36 41 43 58 61 58 66 81 81 92 100 99 99 82 51 64 71 63 46 37 93 45 36 67 71 71 63 48 57 52 46 43 42 43 47 44 40
42 46 52 51 42 27 12 15 22 58 72 68 41 44 46 55 64 54 59 83 85 99 100 100 100 80 50 50 60 69 30 69 93 35 46 60 58 45 54 58 63 57 61 60 62 54 49 53 45
50 42 42 46 36 34 26 22 54 62 80 95 54 52 52 56 62 56 58 89 90 100 100 100 80 72 53 52 46 35 46 97 88 95 94 57 97 92 87 68 52 51 53 56 59 67 63 62 57
41 53 48 49 41 44 41 36 48 66 91 71 47 57 55 58 58 58 63 92 92 96 100 99 89 42 35 59 59 47 56 60 65 70 80 80 91 86 51 51 36 51 42 37 39 39 62 81 68

GFSSGP_700_rhum_144.txt.gz
RH
18 15 12 10 20 22 12 9 10 12 15 16 18 18 20 31 32 43 45 42 34 32 25 29 26 35 20 11 10 9 9 9 9 8 8 10 15 21 26 27 22 21 24 42 51 53 52 56 64
21 19 19 23 27 14 10 9 13 16 18 14 19 19 22 35 34 39 22 32 28 28 28 32 31 33 13 11 12 11 10 9 8 7 7 7 10 14 19 28 29 31 29 42 50 52 56 63 76
23 22 21 33 21 16 11 13 15 18 16 23 21 20 25 34 37 25 23 27 27 34 33 36 39 18 12 15 13 11 10 9 8 7 6 7 11 22 31 34 33 36 36 48 49 54 59 67 80
24 25 23 25 19 14 13 15 17 17 22 28 25 24 28 31 28 19 19 23 24 32 34 41 32 12 17 17 13 12 11 10 9 8 7 9 13 18 25 29 35 38 38 51 53 61 64 68 74
25 32 34 26 20 17 17 19 22 23 24 30 30 26 28 34 35 20 17 18 24 31 35 43 22 15 19 16 13 12 12 11 10 9 8 13 13 14 20 27 35 44 45 51 56 63 67 70 72
38 31 27 23 17 17 22 27 31 29 30 30 31 30 29 35 36 29 20 13 19 27 30 42 18 18 20 16 14 13 13 12 12 12 10 9 24 14 18 27 30 39 44 52 56 63 70 70 70
37 32 27 23 21 19 28 31 32 34 32 26 29 29 29 31 34 33 24 18 13 19 37 42 24 17 19 16 15 16 14 13 14 14 13 10 9 13 15 16 25 34 39 54 64 73 72 69 72
36 34 28 24 20 20 30 32 27 26 25 24 25 23 30 33 33 26 25 50 19 16 22 51 45 19 19 16 16 17 16 15 15 15 14 12 9 9 16 14 14 20 30 47 60 68 66 70 77
32 30 24 20 22 25 30 28 18 18 14 15 19 18 22 18 10 13 21 35 28 22 18 27 56 41 19 18 16 17 17 16 15 15 14 14 11 10 11 13 14 16 20 34 51 59 54 53 63
27 24 20 24 27 27 24 17 11 10 9 8 10 16 15 3 3 6 10 20 26 30 30 25 46 64 42 20 18 16 18 17 17 16 16 16 14 13 13 13 13 16 20 25 38 42 52 61 67
22 21 18 20 21 21 22 8 9 9 8 8 9 10 6 4 11 7 4 7 13 25 27 35 50 56 65 46 21 17 18 19 19 18 17 17 16 16 16 17 14 12 18 25 30 36 42 68 73
16 19 16 22 18 12 4 4 3 9 9 10 11 8 5 11 8 14 6 4 2 5 12 27 33 52 70 64 46 21 17 20 20 20 20 18 18 17 18 20 18 13 12 22 31 34 42 71 72
15 17 14 16 8 4 4 3 4 5 10 10 7 4 8 13 17 22 15 10 8 4 3 4 13 29 36 52 59 40 23 19 22 21 22 21 20 19 19 20 21 17 13 16 40 34 40 70 79
15 15 14 12 12 14 6 4 6 10 11 10 7 12 13 19 25 28 28 34 36 21 12 4 3 5 13 35 43 64 39 23 20 24 22 23 22 21 20 22 23 22 18 14 27 35 37 67 82
12 12 12 11 13 14 10 7 9 12 13 10 13 15 20 24 26 29 36 49 50 52 23 3 3 3 4 16 29 37 60 39 24 21 26 26 26 23 22 22 26 24 23 18 15 35 40 77 78
12 12 13 11 13 15 12 10 11 11 12 12 14 18 24 28 32 40 52 48 31 8 2 1 2 3 3 3 7 25 33 92 43 26 22 27 28 29 23 22 23 28 28 26 17 20 39 54 71
15 15 11 14 15 14 12 12 10 11 11 12 17 23 32 37 46 56 44 13 8 5 6 5 3 2 2 2 3 3 14 32 97 49 26 23 27 33 32 24 23 26 30 32 28 18 24 47 66
14 14 13 13 13 13 12 12 11 11 12 15 24 33 47 56 60 48 7 7 9 8 12 15 13 9 4 1 2 2 3 8 32 97 50 25 24 30 36 32 25 26 28 32 35 32 21 28 54
18 14 13 11 10 12 13 13 12 12 15 20 31 48 52 57 44 18 21 21 19 24 29 30 24 20 24 20 5 3 3 4 6 36 98 56 25 27 32 37 34 26 26 29 33 37 36 28 39
15 11 10 11 12 13 13 12 13 15 20 27 45 51 63 32 32 25 26 26 32 35 34 28 22 19 29 27 23 24 6 4 6 7 55 96 57 25 29 34 37 30 27 27 28 34 34 36 34
14 13 13 15 14 13 13 14 14 18 21 36 47 60 46 18 17 21 23 35 43 38 35 30 24 24 38 41 34 26 17 8 5 6 7 66 99 47 26 31 35 36 29 28 25 30 32 31 34
17 16 14 14 14 12 15 14 14 18 21 37 49 52 33 17 23 28 36 40 39 41 44 42 29 32 41 53 48 44 35 18 12 14 12 10 60 89 28 28 32 36 33 30 26 28 32 32 29
17 21 16 15 16 19 18 16 15 14 22 40 59 64 21 18 25 38 41 40 41 42 45 46 43 47 59 38 40 40 41 39 40 50 30 12 30 84 53 33 30 38 42 31 28 27 31 30 27
20 13 13 18 23 26 24 20 16 16 36 55 66 49 29 19 25 31 43 45 41 41 45 56 64 76 46 34 32 38 39 32 65 56 56 16 4 49 100 66 31 37 58 44 30 27 31 33 29
20 20 21 25 31 30 20 20 18 31 49 58 63 50 25 19 27 32 41 46 42 38 50 65 83 73 47 40 40 42 44 38 66 74 41 50 21 6 66 84 58 44 67 60 38 28 30 32 32
27 21 26 34 28 22 16 15 24 38 58 70 82 50 27 24 29 35 41 46 42 44 51 66 77 93 58 67 31 26 45 55 73 84 46 45 96 6 12 96 85 59 70 70 50 30 31 34 36
26 31 30 38 30 21 16 15 27 42 60 73 74 42 29 24 30 34 40 45 45 54 60 78 92 100 94 69 49 54 79 78 92 75 40 59 88 50 30 48 100 98 61 66 59 34 35 37 40
30 38 36 30 31 25 16 14 32 53 68 77 49 39 24 24 34 36 38 40 51 63 70 88 98 100 94 69 61 59 68 76 67 73 58 55 71 98 58 30 92 98 91 66 48 38 39 41 44
32 43 40 42 41 34 27 22 46 61 78 45 43 37 31 24 37 42 40 43 59 76 80 92 98 100 88 56 70 61 66 67 56 47 34 44 56 98 67 39 62 94 82 83 66 51 43 44 46
33 40 38 43 29 32 35 36 47 55 52 50 46 35 33 24 39 44 46 48 57 74 82 97 97 99 99 90 74 72 58 58 39 25 32 59 75 68 68 62 51 81 66 85 81 73 65 56 53

GFSSGP_700_rhum_150.txt.gz
RH
18 16 15 12 10 13 20 20 18 16 15 15 12 9 11 15 19 19 27 31 30 29 35 33 27 23 24 36 28 13 11 11 10 9 8 7 6 7 9 14 23 26 24 28 50 52 53 54 53
18 18 18 17 17 19 18 18 16 16 16 17 13 22 30 29 32 27 32 34 24 28 31 28 26 25 25 36 24 12 14 13 10 9 9 7 6 7 11 20 27 29 31 27 41 50 56 58 63
20 20 18 16 17 23 22 16 16 17 17 15 16 21 25 30 29 28 28 23 22 21 27 30 30 26 28 37 18 14 15 12 11 10 10 9 7 11 23 24 25 32 35 33 36 45 52 60 66
22 22 20 17 20 25 24 18 21 22 20 20 17 17 33 34 28 24 25 22 18 17 21 32 36 29 34 38 14 16 15 13 12 11 11 11 9 10 17 15 19 28 36 34 42 46 54 61 68
22 22 22 19 26 28 20 22 25 28 27 25 23 28 30 34 34 34 31 28 27 22 17 23 43 38 37 38 15 18 15 13 13 12 12 12 11 10 14 13 16 26 38 41 44 48 60 65 67
22 23 23 29 31 30 24 24 28 29 30 28 29 31 31 33 36 36 36 35 33 29 22 16 33 47 42 40 17 19 16 14 14 14 13 13 13 11 9 10 10 18 29 38 46 48 60 66 70
21 24 25 32 32 34 32 28 29 31 30 29 31 30 30 31 32 32 30 31 30 27 25 20 19 47 48 44 20 19 17 15 16 16 14 15 14 13 9 8 9 11 33 32 33 46 58 64 73
29 30 31 33 29 32 25 28 29 29 27 26 25 24 26 30 30 28 17 19 24 28 22 22 21 20 50 48 29 19 19 16 17 18 15 16 16 14 11 9 11 14 24 22 20 32 56 70 75
34 32 29 30 29 32 28 24 20 20 12 13 18 20 22 22 22 21 10 11 17 16 16 17 22 22 35 71 60 41 25 21 16 17 17 16 17 16 13 11 11 11 15 26 17 24 36 63 73
29 27 28 25 23 26 28 29 24 13 9 9 9 9 13 16 15 12 10 4 5 9 11 15 16 24 40 54 62 69 48 25 21 16 18 17 18 18 16 13 13 13 14 12 12 19 27 50 67
26 24 23 23 22 20 21 20 16 10 8 8 10 11 13 12 9 8 7 3 3 3 3 7 12 13 21 27 40 52 64 50 24 18 17 19 18 19 20 16 15 15 16 15 12 15 24 38 52
18 19 19 19 18 17 17 17 13 4 6 6 8 9 9 9 7 5 5 5 4 4 4 4 3 5 8 14 23 28 45 63 59 24 18 18 20 19 20 21 17 17 18 18 14 12 21 31 39
17 16 16 17 18 16 16 12 5 5 5 8 10 9 8 6 5 6 6 6 5 5 5 5 6 5 4 5 8 12 22 37 52 65 32 19 19 21 20 20 22 18 21 20 18 14 16 31 38
16 15 15 15 15 15 13 8 6 6 7 10 11 11 10 10 11 10 8 7 8 9 9 9 7 6 7 8 7 6 5 9 27 41 57 50 20 20 24 21 21 22 20 22 21 17 15 30 37
19 18 16 16 15 15 14 10 10 9 10 13 13 12 11 12 11 11 12 13 14 16 16 9 6 4 3 3 4 5 6 5 4 7 25 56 55 21 24 24 23 22 23 22 24 21 17 20 35
18 21 24 31 18 12 11 11 11 11 12 14 12 12 12 12 12 12 14 15 22 22 7 3 3 3 2 2 2 1 2 3 3 4 4 9 40 62 30 36 25 24 24 24 26 24 21 19 34
23 27 28 16 12 11 11 12 12 12 12 12 12 12 12 12 12 12 15 23 29 9 10 5 2 2 2 2 1 1 1 1 2 3 3 4 4 22 64 64 29 29 27 27 25 28 24 21 29
30 24 16 16 15 12 12 12 12 12 12 13 12 12 13 12 12 14 19 30 17 14 14 12 4 3 3 2 2 2 2 1 2 3 6 7 5 4 10 62 82 33 32 32 27 28 28 24 24
24 20 18 16 13 14 13 13 11 10 11 12 14 13 13 12 14 15 19 23 18 21 20 11 3 5 5 6 7 6 6 6 6 3 4 11 12 14 6 10 70 82 36 34 34 29 34 29 24
24 24 19 17 13 14 16 14 12 11 12 12 17 18 17 14 15 18 24 27 25 24 18 13 5 7 9 11 16 16 16 12 15 13 8 10 11 11 17 8 25 94 85 45 37 34 32 34 28
27 20 18 17 14 14 14 14 14 13 12 14 15 19 25 17 18 22 25 26 27 25 16 15 6 10 14 16 17 20 26 27 23 21 14 10 14 16 19 19 6 31 97 89 44 44 33 36 35
25 22 20 18 17 15 16 15 13 14 16 18 24 30 30 25 27 25 25 32 31 20 19 16 5 9 12 18 22 27 25 24 36 31 28 28 30 26 21 26 22 6 67 96 75 42 40 35 41
23 20 18 18 16 16 16 14 14 12 15 22 35 41 33 27 30 33 36 32 22 21 19 6 9 10 17 22 26 30 45 55 28 26 24 22 20 22 31 34 35 18 5 64 99 67 52 40 41
24 21 20 18 18 23 17 14 13 12 14 22 39 41 34 36 35 35 32 26 23 19 8 7 15 16 22 29 28 46 52 32 24 33 31 21 25 23 23 25 39 33 15 13 91 97 58 45 43
25 23 22 26 27 27 15 15 12 16 23 32 39 35 42 40 34 33 29 26 20 11 5 14 17 18 27 41 43 38 51 32 39 46 49 38 27 26 25 30 27 39 29 17 34 86 99 65 55
26 24 24 39 50 44 25 30 33 30 36 51 56 48 43 36 36 34 29 22 11 6 11 17 21 22 33 49 58 59 73 65 70 71 64 51 42 34 32 24 29 34 41 20 21 45 85 99 62
28 27 24 25 35 43 31 50 64 63 61 58 53 46 43 42 38 32 26 16 7 11 13 21 24 27 44 54 63 68 83 97 90 85 79 64 62 63 88 37 31 38 60 39 45 30 32 31 96
28 27 26 26 48 47 31 41 40 55 61 58 56 52 47 41 36 32 27 13 13 15 16 28 29 34 43 46 59 78 96 95 92 99 97 72 66 65 93 84 60 67 86 76 57 40 36 18 73
29 29 31 31 28 57 52 36 40 46 57 64 61 54 41 38 36 34 19 14 15 15 15 23 33 36 43 40 48 75 87 92 95 98 99 98 82 48 70 92 91 95 97 80 66 52 43 49 47
30 28 30 38 42 34 38 48 50 69 68 65 59 48 45 44 40 31 17 14 14 15 15 21 38 40 41 42 34 76 78 95 99 99 100 98 98 63 49 64 68 56 64 56 49 50 54 32 56

GFSSGP_700_rhum_153.txt.gz
RH
14 13 10 11 13 18 20 18 18 16 16 17 13 12 12 15 15 19 30 32 27 25 28 32 35 36 26 25 34 34 17 13 13 11 10 9 8 6 7 8 16 24 29 34 31 42 44 49 52
17 16 15 17 20 18 19 19 18 17 18 18 15 17 22 18 15 26 32 31 30 22 25 35 32 34 28 25 34 33 15 15 13 11 10 10 9 7 9 16 22 21 27 36 34 43 48 51 52
18 17 17 18 23 24 24 18 17 18 17 16 15 18 18 17 16 21 27 27 21 18 19 30 44 36 34 28 37 29 16 16 13 12 11 11 10 8 10 18 21 18 24 31 34 41 46 51 55
19 19 19 22 27 27 26 20 19 18 19 18 17 17 19 21 21 23 26 23 20 24 26 21 42 41 29 30 39 30 16 17 14 13 12 12 12 10 9 16 15 15 24 29 31 44 52 54 59
20 20 21 30 30 27 20 21 24 25 22 22 24 25 26 26 26 26 26 22 26 28 30 27 21 46 44 36 41 33 17 18 15 14 14 13 13 12 10 18 16 16 21 31 31 41 50 60 63
19 21 26 32 31 32 28 27 27 31 28 28 29 28 27 29 32 33 33 32 33 29 26 24 23 19 50 46 45 41 23 20 16 15 15 15 14 14 13 11 12 14 17 28 29 36 42 56 62
17 21 28 33 32 30 33 34 31 31 32 31 30 30 29 30 30 31 31 31 32 31 30 26 25 22 22 49 48 47 27 22 19 16 16 16 15 15 14 12 11 12 14 23 34 29 33 48 56
18 20 29 34 30 32 32 30 33 33 31 30 27 28 29 30 30 31 26 24 21 16 12 13 16 22 24 32 53 49 32 20 21 18 16 17 16 16 16 14 12 12 17 19 27 24 26 41 54
17 24 28 32 31 26 29 31 29 28 23 18 20 18 24 28 27 25 21 18 11 8 3 4 8 16 24 30 50 59 48 30 22 19 16 17 18 17 18 16 13 13 13 14 19 29 21 32 46
22 24 28 26 25 29 27 29 26 24 20 13 11 15 15 21 20 19 15 14 12 9 4 3 4 6 11 23 43 60 71 66 51 29 20 17 19 18 19 19 17 14 14 14 14 15 17 24 35
28 24 26 26 23 22 21 23 22 16 13 11 10 14 15 15 14 12 12 10 7 4 4 5 4 3 4 6 12 27 60 65 58 64 46 22 17 19 19 20 20 18 15 16 17 16 15 22 30
21 23 23 23 21 19 19 18 18 17 15 8 9 10 10 10 9 9 6 4 5 5 5 5 6 7 6 5 4 4 8 24 48 61 63 60 27 18 20 20 22 22 19 17 18 19 17 18 25
20 19 18 18 18 18 18 18 16 11 6 6 7 7 9 9 8 7 7 7 6 7 7 7 6 6 6 7 8 6 5 4 6 22 56 62 63 50 20 21 22 22 23 20 18 22 21 17 21
17 18 17 16 17 17 16 16 10 8 6 7 8 9 10 11 11 10 9 9 8 9 10 10 7 4 3 4 4 4 4 5 5 4 5 27 62 68 60 24 22 23 24 24 20 21 23 20 18
18 16 17 16 15 15 15 14 14 11 8 9 10 12 13 13 11 11 11 10 12 14 14 9 6 7 4 1 1 2 2 2 2 3 3 4 5 19 57 65 42 23 25 27 27 21 23 24 21
18 19 20 20 19 17 16 17 11 10 10 10 12 14 13 12 12 12 12 14 13 13 14 8 10 10 9 3 1 1 1 1 1 2 2 2 2 4 4 30 65 48 34 57 52 29 23 25 26
19 18 23 29 24 23 18 15 12 12 12 13 14 14 12 12 12 12 13 13 12 14 14 13 15 14 12 7 1 1 2 2 3 2 1 2 2 2 2 3 11 61 66 54 52 63 39 25 27
28 25 25 21 15 15 14 10 11 12 13 15 14 13 13 13 13 14 14 12 12 14 17 16 18 17 15 7 1 1 1 2 2 2 4 5 5 6 2 2 2 4 55 72 63 49 60 60 31
27 24 21 19 16 13 15 13 12 13 13 13 13 12 13 13 13 14 13 13 13 15 18 20 21 21 15 6 1 1 3 3 4 6 5 8 10 14 13 5 6 6 4 48 87 59 58 54 59
24 22 22 21 18 15 12 14 14 13 12 12 13 13 14 15 16 16 16 15 15 16 19 23 23 20 13 6 1 1 2 2 7 12 14 12 14 14 17 14 8 15 13 7 40 81 63 54 55
27 26 24 21 15 15 16 16 15 14 13 12 13 14 16 16 17 18 20 18 18 20 21 24 23 16 15 4 2 4 6 10 16 18 18 28 34 28 27 25 13 11 13 13 12 43 91 61 45
30 26 27 20 18 16 16 17 14 14 13 14 15 18 22 28 28 30 30 27 26 23 25 28 21 18 10 2 4 4 4 7 18 19 33 19 20 25 23 21 24 20 16 21 18 12 75 94 51
29 25 26 22 19 18 17 16 16 16 14 14 16 20 30 32 30 32 33 30 29 28 28 24 20 15 4 5 6 6 7 12 14 19 37 27 22 30 30 20 19 20 24 30 33 23 15 99 87
28 25 22 20 20 22 20 18 21 19 18 17 19 28 39 44 44 40 34 35 35 32 26 20 12 4 5 6 7 7 7 14 15 22 39 41 27 32 40 43 33 24 20 24 33 34 19 35 99
30 27 25 26 26 29 20 20 22 20 16 16 21 33 44 51 49 45 42 38 34 28 23 13 4 4 5 6 7 9 13 20 23 23 36 55 50 51 48 43 39 35 29 24 28 39 31 29 57
31 27 27 43 42 36 22 24 19 21 25 18 30 52 57 55 52 44 39 36 30 25 18 8 4 4 4 5 8 12 21 28 34 39 55 49 48 55 55 49 45 43 40 30 29 36 38 38 56
30 25 25 23 37 45 31 31 26 38 39 44 53 59 58 53 46 42 40 34 30 27 17 6 3 4 5 6 11 19 25 37 43 50 69 68 69 70 84 54 51 78 84 37 24 30 45 49 43
34 30 27 26 40 38 28 28 30 43 41 54 60 61 56 51 48 44 39 37 34 28 15 6 3 4 7 10 18 23 29 38 47 61 66 74 73 88 90 70 58 96 87 54 30 35 46 60 49
31 30 28 28 27 52 54 30 28 28 40 44 58 61 59 54 48 45 42 39 34 25 12 5 4 5 9 12 19 25 34 38 38 64 57 85 81 96 89 89 49 86 99 86 78 74 69 68 57
30 29 29 30 41 30 38 35 36 37 50 63 69 67 61 54 50 47 43 37 31 18 9 5 5 6 9 12 17 29 36 37 27 56 55 67 92 97 98 98 82 56 89 99 98 94 95 83 70

GFSSGP_700_rhum_159.txt.gz
RH
13 12 12 11 11 16 14 18 18 18 24 36 28 40 54 31 38 28 36 32 28 26 22 26 35 44 53 53 42 38 39 34 20 17 14 13 12 11 11 10 12 22 23 22 30 33 37 44 45
18 18 18 17 14 16 18 17 19 18 20 18 19 22 26 22 24 26 27 24 25 25 22 20 22 34 42 54 46 39 42 36 22 18 15 13 12 12 12 11 12 18 20 23 30 34 33 38 43
19 19 19 18 17 17 18 19 18 20 23 24 23 26 21 21 24 25 26 24 27 28 28 28 27 26 41 43 48 36 38 36 25 18 16 14 13 13 13 13 14 17 17 19 24 35 34 36 43
19 21 21 21 18 21 20 21 21 21 23 23 25 24 21 22 24 25 27 26 27 30 31 32 31 30 28 49 41 36 32 35 35 24 18 15 14 14 14 14 13 13 14 16 19 31 34 35 42
18 20 22 22 24 22 24 20 23 25 24 23 24 21 22 24 26 26 23 21 23 27 28 28 23 20 24 29 43 55 44 40 40 29 19 17 15 16 16 15 14 13 16 16 16 24 33 30 34
16 18 23 26 24 23 22 21 21 24 24 24 24 24 25 27 27 22 20 19 24 30 27 14 9 6 8 17 25 34 60 56 50 40 24 20 16 16 17 16 15 14 13 12 15 18 28 31 27
13 16 21 27 28 26 22 22 25 28 28 26 26 27 28 29 25 22 21 21 25 25 17 12 9 5 3 6 16 25 37 64 65 55 37 26 20 16 18 18 16 16 14 13 13 16 19 24 27
13 14 18 28 31 32 28 26 29 31 31 30 30 29 29 26 20 20 20 22 24 17 13 11 6 4 4 4 7 17 32 56 64 63 53 37 28 22 17 18 17 16 16 14 14 14 15 16 20
14 17 17 20 29 31 34 33 32 32 32 31 30 29 26 18 20 19 22 25 20 14 10 7 5 6 7 6 6 5 8 18 36 53 57 63 64 50 33 20 18 18 17 17 15 15 15 16 16
16 18 17 21 25 29 30 31 32 32 30 23 18 18 20 18 15 21 23 19 12 10 7 6 7 7 8 9 7 6 6 5 6 16 36 54 60 64 62 55 30 19 19 19 17 16 16 17 17
20 21 22 26 29 30 25 23 22 23 25 24 25 19 14 11 15 19 16 12 9 7 9 10 10 10 8 6 5 4 3 4 4 4 4 8 22 36 52 64 64 49 22 20 20 18 18 17 18
21 22 23 26 26 27 25 23 23 24 23 22 20 18 16 12 13 14 11 9 9 11 11 12 12 12 8 9 8 6 5 2 1 2 2 3 3 3 7 19 46 60 62 35 21 21 20 19 19
22 21 23 23 25 27 25 22 20 20 19 18 16 13 10 10 10 10 10 10 11 11 11 12 13 14 8 12 12 10 8 5 2 1 1 1 1 1 1 2 3 9 33 51 56 32 22 22 19
28 23 18 19 20 21 20 20 20 19 18 15 13 10 8 8 9 10 10 12 12 11 12 12 13 15 11 14 15 15 13 10 5 1 1 1 1 1 1 1 1 1 2 6 27 52 48 23 22
32 26 21 19 18 18 18 19 18 16 15 15 13 12 8 7 8 8 12 12 12 12 12 12 13 14 15 15 16 17 16 15 7 1 1 1 1 1 1 1 1 1 1 1 2 6 35 55 39
36 28 25 26 21 18 17 18 17 17 16 14 14 11 10 8 8 11 12 12 12 12 12 13 13 14 15 16 18 19 18 17 14 2 1 1 1 1 1 1 1 1 1 1 1 1 2 17 50
43 32 33 28 22 22 20 20 22 24 17 16 16 13 11 10 10 12 12 12 12 12 13 14 14 14 15 16 17 18 19 18 17 5 1 1 1 1 1 1 2 4 5 4 3 3 2 2 6
46 36 34 32 27 24 24 26 22 20 16 13 14 13 11 10 12 13 12 12 12 13 14 15 15 16 17 17 17 19 20 19 18 10 1 1 1 1 1 1 2 3 6 11 12 9 7 4 3
36 35 35 38 30 25 29 25 18 15 16 15 12 13 12 12 13 13 13 13 13 14 16 18 19 18 19 19 18 19 20 19 18 12 1 1 2 2 2 1 2 6 9 12 16 15 16 13 13
40 38 35 36 34 29 28 25 21 17 14 16 13 12 13 13 14 14 13 14 15 16 20 24 23 21 20 19 19 20 20 19 19 8 1 1 1 2 1 2 4 7 12 17 24 17 17 21 23
50 42 41 38 36 30 28 28 22 18 17 15 14 14 15 16 16 14 13 15 18 20 25 28 29 30 26 24 25 26 24 20 18 6 1 1 1 2 3 3 6 13 14 20 31 22 24 21 19
62 47 40 39 34 27 24 22 23 18 16 16 15 14 14 15 14 14 15 17 21 25 30 35 38 38 36 33 30 26 22 20 17 4 1 1 1 2 3 5 10 15 18 27 38 27 25 39 20
56 58 48 36 32 30 28 25 24 24 23 22 16 15 15 15 16 17 19 22 23 30 39 43 43 41 38 31 25 22 19 13 6 1 1 1 1 2 4 7 17 23 23 39 54 40 42 44 41
38 37 43 41 30 26 28 24 24 26 25 24 23 21 20 18 19 21 24 29 34 41 47 47 44 40 33 27 23 18 10 4 1 1 1 1 1 2 7 9 19 24 26 44 49 47 50 49 44
44 34 31 28 27 29 26 24 24 27 24 22 21 21 21 21 23 27 34 42 50 51 50 47 40 35 33 27 20 9 3 1 1 1 1 1 1 1 6 10 16 24 32 41 49 55 56 53 50
61 52 35 44 34 28 28 24 23 25 22 21 21 21 21 20 22 35 46 54 53 51 50 42 39 39 38 26 20 7 2 1 1 1 1 1 1 2 4 8 17 24 36 42 51 53 52 53 63
55 50 47 36 38 39 32 27 25 24 23 25 26 26 25 22 27 44 54 55 54 54 46 44 45 44 33 28 21 7 2 2 2 2 1 1 1 2 4 10 17 24 34 41 49 59 60 71 62
48 48 44 48 87 74 40 34 29 28 28 27 27 28 33 34 38 51 60 59 57 50 49 49 49 37 31 23 12 5 3 2 2 2 2 1 2 2 4 10 18 26 37 44 46 65 61 69 54
50 47 46 41 38 47 49 37 34 31 27 30 36 36 36 44 56 63 63 57 54 54 53 53 41 38 35 17 9 6 4 3 2 2 2 2 2 2 3 7 16 26 30 42 46 45 60 64 66
58 47 39 43 43 37 38 39 43 41 37 40 39 42 45 54 61 64 63 61 60 58 58 47 46 44 34 22 11 6 4 3 2 2 2 2 2 2 3 5 13 26 25 29 40 45 51 68 81